Location: Le Hiès Ruisseau
(43.3000°N, 0.4500°W)
Time: 12:13:39
(UTC+00:00)

ATLAS 2AS CENTAUR R/B - Pass Details

Date: 28 January 2023
Orbit: 986 x 1226 km, 63.7° (Epoch: 31 January)

Event Time Altitude Azimuth Distance (km) Brightness Sun altitude
Rises 19:10:29 0° 325° (NW) 3,976 6.1 -22.3°
Reaches altitude 10° 19:13:19 10° 329° (NNW) 2,978 5.3 -22.8°
Maximum altitude 19:20:15 58° 48° (NE) 1,224 2.7 -24.1°
Enters shadow 19:21:31 50° 88° (E) 1,313 2.7 -24.3°
